| time (UTC) | temp C | wind direction | speed KPH | gust KPH | rain 1hr cm | rain 24hr cm | rain mn cm | humidity % | barometer mb |
| 20260506003209 | 12 | 0 | 3.2 | 0.0 | 0.00 | 0.00 | 0.00 | 93 | 1006.0 |
| 20260506001851 | 12 | 280 | 8.0 | 0.0 | 0.00 | 0.00 | 0.00 | 93 | |
| 20260505233103 | 12 | 0 | 1.6 | 0.0 | 0.00 | 0.00 | 0.00 | 93 | 1006.0 |
| 20260505231852 | 12 | 290 | 3.2 | 0.0 | 0.00 | 0.00 | 0.00 | 93 | |
| 20260505230212 | 12 | 290 | 8.0 | 0.0 | 0.00 | 0.00 | 0.00 | 93 | 1006.0 |
| 20260505224003 | 12 | 290 | 11.3 | 0.0 | 0.00 | 0.00 | 0.00 | 93 | 1006.0 |
| 20260505223103 | 13 | 290 | 12.9 | 0.0 | 0.00 | 0.00 | 0.00 | 93 | 1006.0 |
| 20260505221851 | 13 | 270 | 22.5 | 0.0 | 0.00 | 0.00 | 0.00 | 87 | |
| 20260505220703 | 13 | 270 | 20.9 | 0.0 | 0.00 | 0.00 | 0.00 | 93 | 1006.0 |
| 20260505213102 | 15 | 260 | 20.9 | 0.0 | 0.00 | 0.00 | 0.00 | 87 | 1006.0 |
| 20260505211925 | 16 | 280 | 14.5 | 0.0 | 0.00 | 0.00 | 0.00 | 77 | |
| 20260505211808 | 16 | 260 | 20.9 | 0.0 | 0.00 | 0.00 | 0.00 | 82 | 1006.0 |
| 20260505210218 | 16 | 290 | 12.9 | 0.0 | 0.00 | 0.00 | 0.00 | 77 | 1006.0 |
| 20260505203102 | 17 | 240 | 20.9 | 0.0 | 0.00 | 0.00 | 0.00 | 59 | 1004.0 |
| 20260505202903 | 17 | 240 | 20.9 | 0.0 | 0.00 | 0.00 | 0.00 | 59 | 1004.0 |
| 20260505201908 | 17 | 320 | 8.0 | 0.0 | 0.00 | 0.00 | 0.00 | 63 | |
| 20260505200219 | 17 | 320 | 9.7 | 0.0 | 0.00 | 0.00 | 0.00 | 63 | 1003.0 |
| 20260505193103 | 17 | 340 | 9.7 | 0.0 | 0.00 | 0.00 | 0.00 | 67 | 1003.0 |
| 20260505191925 | 17 | 30 | 8.0 | 0.0 | 0.00 | 0.00 | 0.00 | 67 | |
| 20260505190211 | 17 | 40 | 9.7 | 0.0 | 0.00 | 0.00 | 0.00 | 67 | 1004.0 |
| 20260505183102 | 18 | 70 | 16.1 | 0.0 | 0.00 | 0.00 | 0.00 | 55 | 1004.0 |
| 20260505181910 | 18 | 110 | 19.3 | 0.0 | 0.00 | 0.00 | 0.00 | 52 | |
| 20260505180103 | 18 | 110 | 19.3 | 0.0 | 0.00 | 0.00 | 0.00 | 55 | 1004.0 |
| 20260505174403 | 18 | 120 | 19.3 | 0.0 | 0.00 | 0.00 | 0.00 | 55 | 1004.0 |
| 20260505173102 | 20 | 120 | 24.1 | 0.0 | 0.00 | 0.00 | 0.00 | 52 | 1004.0 |
| 20260505171852 | 20 | 120 | 25.7 | 0.0 | 0.00 | 0.00 | 0.00 | 52 | |
| 20260505170103 | 20 | 130 | 25.7 | 0.0 | 0.00 | 0.00 | 0.00 | 52 | 1005.0 |
| 20260505163209 | 23 | 50 | 11.3 | 0.0 | 0.00 | 0.00 | 0.00 | 33 | 1004.0 |
| 20260505162024 | 23 | 60 | 11.3 | 0.0 | 0.00 | 0.00 | 0.00 | 36 | |
| 20260505153210 | 23 | 80 | 8.0 | 0.0 | 0.00 | 0.00 | 0.00 | 36 | 1005.0 |
| 20260505151908 | 22 | 80 | 8.0 | 0.0 | 0.00 | 0.00 | 0.00 | 38 | |
| 20260505150212 | 22 | 110 | 4.8 | 0.0 | 0.00 | 0.00 | 0.00 | 40 | 1005.0 |
| 20260505140211 | 23 | 20 | 9.7 | 0.0 | 0.00 | 0.00 | 0.00 | 38 | 1005.0 |
| 20260505123103 | 22 | 30 | 8.0 | 0.0 | 0.00 | 0.00 | 0.00 | 43 | 1007.0 |
| 20260505121852 | 22 | 10 | 11.3 | 0.0 | 0.00 | 0.00 | 0.00 | 40 | |
| 20260505120103 | 22 | 70 | 8.0 | 0.0 | 0.00 | 0.00 | 0.00 | 43 | 1007.0 |
| 20260505113103 | 22 | 130 | 4.8 | 0.0 | 0.00 | 0.00 | 0.00 | 43 | 1007.0 |
| 20260505111851 | 22 | 340 | 11.3 | 0.0 | 0.00 | 0.00 | 0.00 | 43 | |
| 20260505110208 | 22 | 10 | 9.7 | 0.0 | 0.00 | 0.00 | 0.00 | 46 | 1007.0 |
| 20260505101852 | 21 | 350 | 8.0 | 0.0 | 0.00 | 0.00 | 0.00 | 43 | |
| 20260505093102 | 20 | 20 | 8.0 | 0.0 | 0.00 | 0.00 | 0.00 | 52 | 1008.0 |
| 20260505091851 | 20 | 10 | 11.3 | 0.0 | 0.00 | 0.00 | 0.00 | 56 | |
| 20260505083102 | 18 | 350 | 9.7 | 0.0 | 0.00 | 0.00 | 0.00 | 59 | 1008.0 |
| 20260505081853 | 17 | 40 | 8.0 | 0.0 | 0.00 | 0.00 | 0.00 | 63 | |
| 20260505080103 | 17 | 20 | 8.0 | 0.0 | 0.00 | 0.00 | 0.00 | 63 | 1008.0 |
| 20260505073103 | 17 | 30 | 9.7 | 0.0 | 0.00 | 0.00 | 0.00 | 67 | 1008.0 |
| 20260505071851 | 17 | 30 | 8.0 | 0.0 | 0.00 | 0.00 | 0.00 | 67 | |
| 20260505070211 | 17 | 10 | 8.0 | 0.0 | 0.00 | 0.00 | 0.00 | 67 | 1009.0 |
| 20260505063102 | 16 | 360 | 4.8 | 0.0 | 0.00 | 0.00 | 0.00 | 77 | 1008.0 |
| 20260505061854 | 16 | 10 | 8.0 | 0.0 | 0.00 | 0.00 | 0.00 | 72 | |
| 20260505053103 | 17 | 0 | 3.2 | 0.0 | 0.00 | 0.00 | 0.00 | 67 | 1009.0 |
| 20260505051852 | 15 | 270 | 3.2 | 0.0 | 0.00 | 0.00 | 0.00 | 77 | |
| 20260505050210 | 16 | 0 | 0.0 | 0.0 | 0.00 | 0.00 | 0.00 | 72 | 1009.0 |
| 20260505033103 | 13 | 270 | 8.0 | 0.0 | 0.00 | 0.00 | 0.00 | 87 | 1009.0 |
| 20260505031852 | 13 | 200 | 8.0 | 0.0 | 0.00 | 0.00 | 0.00 | 87 | |
| 20260505030103 | 15 | 200 | 4.8 | 0.0 | 0.00 | 0.00 | 0.00 | 77 | 1009.0 |
| 20260505023102 | 13 | 0 | 3.2 | 0.0 | 0.00 | 0.00 | 0.00 | 87 | 1009.0 |
| 20260505021851 | 15 | 310 | 3.2 | 0.0 | 0.00 | 0.00 | 0.00 | 72 | |
| 20260505020103 | 15 | 0 | 3.2 | 0.0 | 0.00 | 0.00 | 0.00 | 77 | 1009.0 |
| 20260505013102 | 15 | 320 | 4.8 | 0.0 | 0.00 | 0.00 | 0.00 | 77 | 1009.0 |
| 20260505011854 | 16 | 20 | 3.2 | 0.0 | 0.00 | 0.00 | 0.00 | 67 | |
| 20260505010103 | 16 | 0 | 3.2 | 0.0 | 0.00 | 0.00 | 0.00 | 72 | 1009.0 |